• în Republica Moldova
  • Lista ţărilor
  • Pe 7 zile
  • Temperatura apei
  • Hartă satelitară
  • Meteo pe hartă
  • Widget-uri
  • user-avatar
    Intrare

    Meteo pe oră la Namibe

    Astăzi, 23 Aprilie, Duminică

    Timp Temperatura Precipitaţii Vânt Presiune Umiditate
    00:00 +27°C° 0 mm 3 m/s 758 mmHg 44%
    01:00 +27°C° 0 mm 3 m/s 758 mmHg 49%
    02:00 +26°C° 0 mm 3 m/s 758 mmHg 49%
    03:00 +26°C° 0 mm 3 m/s 757 mmHg 48%
    04:00 +25°C° 0 mm 2 m/s 757 mmHg 48%
    05:00 +26°C° 0 mm 2 m/s 757 mmHg 47%
    06:00 +26°C° 0 mm 2 m/s 758 mmHg 45%
    07:00 +28°C° 0 mm 2 m/s 758 mmHg 40%
    08:00 +29°C° 0 mm 2 m/s 758 mmHg 34%
    09:00 +31°C° 0 mm 2 m/s 758 mmHg 28%
    10:00 +34°C° 0 mm 2 m/s 758 mmHg 21%
    11:00 +35°C° 0 mm 3 m/s 758 mmHg 19%
    12:00 +37°C° 0 mm 4 m/s 758 mmHg 17%
    13:00 +39°C° 0 mm 5 m/s 757 mmHg 15%
    14:00 +38°C° 0 mm 6 m/s 757 mmHg 16%
    15:00 +36°C° 0 mm 6 m/s 757 mmHg 18%
    16:00 +36°C° 0 mm 6 m/s 756 mmHg 19%
    17:00 +33°C° 0 mm 6 m/s 757 mmHg 27%
    18:00 +30°C° 0 mm 6 m/s 757 mmHg 36%
    19:00 +28°C° 0 mm 5 m/s 757 mmHg 44%
    20:00 +28°C° 0 mm 5 m/s 758 mmHg 46%
    21:00 +27°C° 0 mm 4 m/s 758 mmHg 48%
    22:00 +26°C° 0 mm 4 m/s 758 mmHg 51%
    23:00 +26°C° 0 mm 3 m/s 758 mmHg 52%

    Mâine, 24 Aprilie, Luni

    Timp Temperatura Precipitaţii Vânt Presiune Umiditate
    00:00 +25°C° 0 mm 3 m/s 758 mmHg 53%
    01:00 +25°C° 0 mm 2 m/s 758 mmHg 54%
    02:00 +24°C° 0 mm 2 m/s 758 mmHg 54%
    03:00 +24°C° 0 mm 2 m/s 758 mmHg 54%
    04:00 +24°C° 0 mm 2 m/s 758 mmHg 54%
    05:00 +24°C° 0 mm 2 m/s 758 mmHg 52%
    06:00 +24°C° 0 mm 2 m/s 758 mmHg 51%
    07:00 +25°C° 0 mm 2 m/s 758 mmHg 49%
    08:00 +27°C° 0 mm 2 m/s 759 mmHg 40%
    09:00 +29°C° 0 mm 2 m/s 759 mmHg 31%
    10:00 +32°C° 0 mm 2 m/s 759 mmHg 22%
    11:00 +34°C° 0 mm 3 m/s 759 mmHg 21%
    12:00 +35°C° 0 mm 4 m/s 758 mmHg 20%
    13:00 +36°C° 0 mm 5 m/s 758 mmHg 19%
    14:00 +35°C° 0 mm 6 m/s 758 mmHg 22%
    15:00 +34°C° 0 mm 6 m/s 758 mmHg 25%
    16:00 +33°C° 0 mm 6 m/s 757 mmHg 28%
    17:00 +32°C° 0 mm 5 m/s 758 mmHg 35%
    18:00 +29°C° 0 mm 5 m/s 758 mmHg 41%
    19:00 +27°C° 0 mm 4 m/s 758 mmHg 47%
    20:00 +27°C° 0 mm 3 m/s 759 mmHg 50%
    21:00 +26°C° 0 mm 3 m/s 759 mmHg 53%
    22:00 +25°C° 0 mm 2 m/s 759 mmHg 56%
    23:00 +25°C° 0 mm 2 m/s 759 mmHg 58%

    Poimâine, 25 Aprilie, Marţi

    Timp Temperatura Precipitaţii Vânt Presiune Umiditate
    00:00 +24°C° 0 mm 2 m/s 759 mmHg 60%
    01:00 +24°C° 0 mm 2 m/s 759 mmHg 61%
    02:00 +23°C° 0 mm 2 m/s 759 mmHg 62%
    03:00 +23°C° 0 mm 2 m/s 758 mmHg 64%
    04:00 +21°C° 0 mm 2 m/s 758 mmHg 65%
    05:00 +23°C° 0 mm 2 m/s 758 mmHg 63%
    06:00 +23°C° 0 mm 2 m/s 759 mmHg 60%
    07:00 +23°C° 0 mm 2 m/s 759 mmHg 58%
    08:00 +26°C° 0 mm 2 m/s 759 mmHg 47%
    09:00 +28°C° 0 mm 2 m/s 759 mmHg 37%
    10:00 +31°C° 0 mm 2 m/s 760 mmHg 26%
    11:00 +33°C° 0 mm 3 m/s 759 mmHg 24%
    12:00 +35°C° 0 mm 4 m/s 758 mmHg 21%
    13:00 +36°C° 0 mm 4 m/s 757 mmHg 18%
    14:00 +36°C° 0 mm 5 m/s 757 mmHg 20%
    15:00 +35°C° 0 mm 6 m/s 756 mmHg 23%
    16:00 +35°C° 0 mm 6 m/s 756 mmHg 25%
    17:00 +33°C° 0 mm 6 m/s 756 mmHg 33%
    18:00 +29°C° 0 mm 6 m/s 757 mmHg 41%
    19:00 +27°C° 0 mm 5 m/s 757 mmHg 49%
    20:00 +27°C° 0 mm 5 m/s 758 mmHg 51%
    21:00 +26°C° 0 mm 4 m/s 758 mmHg 53%
    22:00 +26°C° 0 mm 4 m/s 759 mmHg 54%
    23:00 +25°C° 0 mm 4 m/s 758 mmHg 56%

    26 Aprilie, Miercuri

    Timp Temperatura Precipitaţii Vânt Presiune Umiditate
    00:00 +25°C° 0 mm 3 m/s 758 mmHg 57%
    01:00 +24°C° 0 mm 3 m/s 758 mmHg 59%
    02:00 +24°C° 0 mm 3 m/s 758 mmHg 60%
    03:00 +22°C° 0 mm 3 m/s 758 mmHg 62%
    04:00 +22°C° 0 mm 3 m/s 757 mmHg 63%
    05:00 +22°C° 0 mm 3 m/s 758 mmHg 61%
    06:00 +22°C° 0 mm 3 m/s 758 mmHg 59%
    07:00 +24°C° 0 mm 3 m/s 759 mmHg 57%
    08:00 +26°C° 0 mm 3 m/s 759 mmHg 47%
    09:00 +29°C° 0 mm 2 m/s 759 mmHg 38%
    10:00 +31°C° 0 mm 2 m/s 759 mmHg 28%
    11:00 +34°C° 0 mm 3 m/s 758 mmHg 26%
    12:00 +35°C° 0 mm 4 m/s 757 mmHg 24%
    13:00 +37°C° 0 mm 5 m/s 757 mmHg 22%
    14:00 +36°C° 0 mm 5 m/s 756 mmHg 26%
    15:00 +35°C° 0 mm 6 m/s 756 mmHg 31%
    16:00 +34°C° 0 mm 6 m/s 756 mmHg 35%
    17:00 +32°C° 0 mm 6 m/s 756 mmHg 42%
    18:00 +29°C° 0 mm 5 m/s 757 mmHg 49%
    19:00 +27°C° 0 mm 4 m/s 757 mmHg 56%
    20:00 +27°C° 0 mm 4 m/s 758 mmHg 58%
    21:00 +26°C° 0 mm 3 m/s 758 mmHg 59%
    22:00 +26°C° 0 mm 3 m/s 758 mmHg 61%
    23:00 +25°C° 0 mm 3 m/s 758 mmHg 61%

    27 Aprilie, Joi

    Timp Temperatura Precipitaţii Vânt Presiune Umiditate
    00:00 +25°C° 0 mm 3 m/s 758 mmHg 62%
    01:00 +25°C° 0 mm 3 m/s 758 mmHg 63%
    02:00 +24°C° 0 mm 3 m/s 757 mmHg 63%
    03:00 +24°C° 0 mm 3 m/s 757 mmHg 63%
    04:00 +24°C° 0 mm 3 m/s 757 mmHg 64%
    05:00 +24°C° 0 mm 2 m/s 758 mmHg 62%
    06:00 +25°C° 0 mm 2 m/s 758 mmHg 60%
    07:00 +25°C° 0 mm 2 m/s 759 mmHg 59%
    08:00 +27°C° 0 mm 2 m/s 759 mmHg 50%
    09:00 +30°C° 0 mm 2 m/s 759 mmHg 41%
    10:00 +32°C° 0 mm 2 m/s 759 mmHg 32%
    11:00 +35°C° 0 mm 3 m/s 758 mmHg 30%
    12:00 +36°C° 0 mm 4 m/s 757 mmHg 28%
    13:00 +39°C° 0 mm 5 m/s 757 mmHg 26%
    14:00 +37°C° 0 mm 5 m/s 756 mmHg 29%
    15:00 +36°C° 0 mm 5 m/s 756 mmHg 33%
    16:00 +35°C° 0 mm 5 m/s 756 mmHg 36%
    17:00 +33°C° 0 mm 5 m/s 756 mmHg 41%
    18:00 +32°C° 0 mm 4 m/s 757 mmHg 46%
    19:00 +29°C° 0 mm 3 m/s 757 mmHg 51%
    20:00 +28°C° 0 mm 3 m/s 758 mmHg 52%
    21:00 +28°C° 0 mm 3 m/s 758 mmHg 53%
    22:00 +28°C° 0 mm 2 m/s 758 mmHg 53%
    23:00 +28°C° 0 mm 2 m/s 758 mmHg 53%

    28 Aprilie, Vineri

    Timp Temperatura Precipitaţii Vânt Presiune Umiditate
    00:00 +27°C° 0 mm 2 m/s 758 mmHg 53%
    01:00 +27°C° 0 mm 2 m/s 758 mmHg 53%
    02:00 +27°C° 0 mm 2 m/s 758 mmHg 53%
    03:00 +27°C° 0 mm 2 m/s 758 mmHg 53%
    04:00 +27°C° 0 mm 2 m/s 758 mmHg 53%
    05:00 +27°C° 0 mm 3 m/s 758 mmHg 50%
    06:00 +28°C° 0 mm 3 m/s 758 mmHg 47%
    07:00 +28°C° 0 mm 3 m/s 759 mmHg 44%
    08:00 +31°C° 0 mm 3 m/s 759 mmHg 38%
    09:00 +35°C° 0 mm 3 m/s 759 mmHg 31%
    10:00 +37°C° 0 mm 3 m/s 759 mmHg 25%
    11:00 +38°C° 0 mm 3 m/s 758 mmHg 24%
    12:00 +41°C° 0 mm 4 m/s 757 mmHg 23%
    13:00 +42°C° 0 mm 4 m/s 757 mmHg 22%
    14:00 +41°C° 0 mm 5 m/s 756 mmHg 24%
    15:00 +39°C° 0 mm 6 m/s 756 mmHg 25%
    16:00 +38°C° 0 mm 6 m/s 756 mmHg 27%
    17:00 +35°C° 0 mm 5 m/s 756 mmHg 33%
    18:00 +33°C° 0 mm 5 m/s 757 mmHg 39%
    19:00 +30°C° 0 mm 4 m/s 758 mmHg 45%
    20:00 +30°C° 0 mm 4 m/s 758 mmHg 46%
    21:00 +29°C° 0 mm 4 m/s 759 mmHg 47%
    22:00 +29°C° 0 mm 3 m/s 759 mmHg 48%
    23:00 +29°C° 0 mm 3 m/s 759 mmHg 47%
    Arată mai mult